This is the latest recevied weather packets stored in our database for station/object 9A7DI-13. If no packets are shown the sender has not sent any weather packets the latest 10 day(s).
| Time | Temp. | Humidity | Pressure | Rain* | Wind** | Luminosity | Snow |
|---|---|---|---|---|---|---|---|
| 1787871421 | 22.78° C | 75% | 1025.2 hPa | - | - | - | - |
| 1787870815 | 22.22° C | 77% | 1025.2 hPa | - | - | - | - |
| 1787870215 | 22.22° C | 78% | 1025.4 hPa | - | - | - | - |
| 1787869016 | 22.22° C | 79% | 1025.3 hPa | - | - | - | - |
| 1787868416 | 22.78° C | 77% | 1025.2 hPa | - | - | - | - |
| 1787867815 | 22.22° C | 78% | 1025.4 hPa | - | - | - | - |
| 1787867215 | 22.22° C | 78% | 1025.4 hPa | - | - | - | - |
| 1787866615 | 22.22° C | 78% | 1025.4 hPa | - | - | - | - |
| 1787866015 | 22.22° C | 79% | 1025.3 hPa | - | - | - | - |
| 1787864815 | 22.78° C | 76% | 1025.4 hPa | - | - | - | - |
| 1787864215 | 23.33° C | 73% | 1025.3 hPa | - | - | - | - |
| 1787863615 | 23.89° C | 72% | 1025.2 hPa | - | - | - | - |
| 1787860616 | 23.89° C | 71% | 1025.1 hPa | - | - | - | - |
| 1787860016 | 23.89° C | 69% | 1024.9 hPa | - | - | - | - |
| 1787858816 | 23.89° C | 69% | 1024.8 hPa | - | - | - | - |
| 1787858216 | 23.89° C | 72% | 1024.8 hPa | - | - | - | - |
| 1787857616 | 24.44° C | 69% | 1024.7 hPa | - | - | - | - |
| 1787857017 | 24.44° C | 70% | 1024.7 hPa | - | - | - | - |
| 1787856416 | 24.44° C | 69% | 1024.5 hPa | - | - | - | - |
| 1787855816 | 25° C | 69% | 1024.5 hPa | - | - | - | - |
| 1787855216 | 26.67° C | 62% | 1024.3 hPa | - | - | - | - |
| 1787853416 | 28.33° C | 57% | 1024 hPa | - | - | - | - |
| 1787852816 | 27.78° C | 57% | 1023.9 hPa | - | - | - | - |
| 1787852216 | 28.89° C | 53% | 1023.6 hPa | - | - | - | - |
| 1787851616 | 28.89° C | 55% | 1023.8 hPa | - | - | - | - |
* Rain since midnight (hover to see other rain measurements)
** Current wind speed in m/s (hover to see current wind gust speed)